Location: ??????
(38.3835°N, 24.0619°E)
Time: 23:44:13
(UTC+00:00)

Daily predictions for brighter satellites

Satellite Brightness Start Highest point End
(mag) Time Altitude Azimuth Time Altitude Azimuth Time Altitude Azimuth
Sich 1 3.8 15:25:28 10° NNE 15:29:19 31° ENE 15:33:11 10° SE
COSMOS 2406 3.3 15:24:34 10° SSW 15:30:19 88° ESE 15:36:05 10° NNE
Cosmos 1602 4.1 15:27:19 10° N 15:30:59 41° E 15:34:39 10° SSE
Cosmos 2084 3.5 15:27:18 10° NNW 15:31:39 76° NE 15:36:11 10° SE
USA 276 2.0 15:28:59 10° NW 15:32:06 82° NNE 15:35:13 10° SE
Cosmos 1805 Rocket 3.8 15:29:41 10° N 15:33:52 46° E 15:38:02 10° SSE
USA 267 3.8 15:30:58 10° NE 15:37:19 55° NW 15:43:39 10° WSW
CZ-2C R/B 3.1 15:33:04 10° S 15:38:01 77° WSW 15:42:48 10° NNW
Cosmos 1092 Rocket 4.0 15:34:26 10° N 15:40:46 67° E 15:47:01 10° SSE
Cosmos 1782 2.8 15:40:56 10° S 15:44:53 64° E 15:48:50 10° NNE
CZ-4C R/B 3.6 15:39:59 10° NNW 15:46:37 35° NE 15:54:09 10° ESE
CZ-2C R/B 3.4 15:43:27 10° NE 15:48:00 30° E 15:52:30 10° SSE
H-2A R/B 2.5 15:44:58 10° SE 15:49:45 38° ENE 15:54:24 10° N
CZ-4B R/B 3.9 15:45:24 10° SE 15:50:02 30° ENE 15:54:36 10° N
CZ-2D R/B 3.7 15:48:17 10° SE 15:51:50 37° ENE 15:55:23 10° N
Cosmos 841 Rocket 3.5 15:47:36 10° SSW 15:52:46 87° WNW 15:57:56 10° NNE
GPS 2-04 Rocket1 3.4 15:49:47 10° W 15:53:49 54° S 15:57:49 10° ESE
USA 229 DEB 4.0 15:48:07 10° NNW 15:55:38 89° WSW 16:03:32 10° SSE
USA 229 4.0 15:48:13 10° NNW 15:55:44 90° WSW 16:03:37 10° SSE
Cosmos 1500 3.2 15:52:21 10° N 15:56:01 52° E 15:59:39 10° SSE
Cosmos 2360 4.2 15:53:57 10° NNW 15:59:43 90° ENE 16:05:26 10° SSE
SMAP 3.2 15:56:45 10° S 16:01:23 80° WSW 16:06:04 10° NNW
COSMOS 2455 3.2 15:56:00 10° SW 16:01:59 68° WNW 16:08:01 10° NNE
Cosmos 1937 Rocket 3.5 15:57:08 10° NNW 16:02:29 87° ENE 16:07:47 10° SSE
Cosmos 2279 Rocket 4.1 15:56:47 10° SSE 16:02:50 57° E 16:08:52 10° NNE
Cosmos 1627 Rocket 4.4 15:56:44 10° N 16:02:54 84° E 16:09:01 10° S
AQUARIUS 4.2 16:01:48 10° SSE 16:06:17 84° WSW 16:10:47 10° NNW
Cosmos 921 Rocket 3.9 16:02:47 10° SSE 16:06:20 28° E 16:08:32 18° NE
Meteor 2-21 4.4 16:00:17 10° N 16:06:22 79° E 16:12:24 10° S
ATLAS CENTAUR R/B 4.4 15:57:18 10° WSW 16:07:24 39° NW 16:11:51 10° NNE
USA 234 3.3 16:01:53 10° ESE 16:08:15 58° NE 16:14:38 10° NW
Lacrosse 5 rocket 3.2 16:06:56 10° N 16:09:00 14° NNE 16:09:12 14° NNE
COSMO-SKYMED 1 2.9 16:05:20 10° NNE 16:09:31 45° E 16:13:40 10° S
Cosmos 372 Rocket 3.9 16:05:24 10° NNW 16:10:36 65° ENE 16:15:49 10° SSE
Cosmos 1633 Rocket 3.3 16:12:06 10° N 16:16:20 46° E 16:20:33 10° SSE
Cosmos 44 Rocket 4.4 16:12:30 10° N 16:16:24 23° NE 16:17:16 22° ENE
SL-24 R/B - RUBIN 2 3.4 16:13:38 10° NNW 16:18:02 62° ENE 16:22:18 10° SE
ISS -2.9 16:16:24 10° NW 16:19:29 31° NNE 16:20:03 29° NE
Cosmos 1634 Rocket 4.5 16:14:50 10° SSW 16:21:05 64° W 16:27:23 10° N
Cosmos 1151 Rocket 3.0 16:17:20 10° S 16:21:38 89° SE 16:26:01 10° N
PSLV R/B 3.9 16:20:03 10° S 16:23:42 70° W 16:27:24 10° NNW
Cosmos 1666 2.5 16:21:38 10° N 16:25:19 65° E 16:29:00 10° SSE
Meteor 2-15 4.5 16:22:09 10° SSE 16:28:04 55° E 16:34:01 10° NNE
Cosmos 1900 4.3 16:24:19 10° SSW 16:29:10 87° WNW 16:32:43 19° NNE
Okean O Rocket 1.7 16:28:47 10° SSE 16:33:07 55° ENE 16:37:29 10° N
Cosmos 2322 Rocket 3.7 16:29:20 10° N 16:32:02 18° NE 16:32:02 18° NE
SKYMED 3 4.5 16:29:18 10° NNE 16:33:40 88° ESE 16:38:00 10° SSW
Cosmos 1697 Rocket 4.1 16:28:55 10° NW 16:34:08 41° WSW 16:39:22 10° S
X-37B 1.2 16:36:21 10° SW 16:38:46 39° SSE 16:38:46 39° SSE
Cosmos 1980 Rocket 2.3 16:33:28 10° NNW 16:39:08 78° WSW 16:44:44 10° SSE
SJ-11-01 4.2 16:37:03 10° SSE 16:41:46 72° ENE 16:46:30 10° N
Cosmos 1328 Rocket 3.7 16:37:43 10° S 16:42:08 77° W 16:46:36 10° N
Landsat 5 3.2 16:40:23 25° NNE 16:42:41 77° E 16:46:37 10° S
Cosmos 1666 Rocket 3.9 16:38:38 10° NNW 16:43:02 68° W 16:47:23 10° S
APEX 3.1 16:39:00 10° SSW 16:43:09 59° ESE 16:43:29 56° E
Cosmos 2369 4.4 16:37:50 10° NNW 16:43:25 55° WSW 16:48:57 10° S
Cosmos 1812 4.2 16:40:12 10° SSW 16:43:47 38° W 16:47:23 10° N
Cosmos 1470 Rocket 3.5 16:41:59 10° N 16:46:24 58° E 16:50:48 10° SSE
Meteor 2-8 Rocket 4.5 16:42:18 10° S 16:48:26 83° W 16:54:38 10° N
Meteor 1-5 Rocket 4.4 16:43:08 10° NNW 16:49:07 79° W 16:54:57 10° S
Cosmos 2082 Rocket 3.7 16:45:47 10° SW 16:50:54 34° WNW 16:56:02 10° N
SL-16 R/B 2.8 16:46:55 10° N 16:51:23 34° NE 16:51:23 34° NE
Cosmos 1655 Rocket 3.9 16:46:36 10° N 16:52:58 65° E 16:59:14 10° SSE
Cosmos 2298 Rocket 4.1 16:51:54 10° N 16:57:08 53° ENE 16:58:06 47° ESE
SKYMED 2 4.4 16:53:22 10° N 16:57:34 49° WNW 17:01:44 10° SSW
DMSP B5D2-2 4.0 17:01:45 51° NE 17:02:46 62° E 17:07:56 10° S
ARGOS 3.3 16:57:29 10° S 17:02:54 75° WSW 17:08:19 10° NNW
NOAA 15 4.5 17:01:15 10° SSE 17:06:28 63° ENE 17:11:40 10° N
Cosmos 2278 4.1 17:01:29 10° NNW 17:07:08 64° WSW 17:12:43 10° S
CZ-2C R/B 2.1 17:04:09 10° WSW 17:07:51 42° S 17:07:51 42° S
Cosmos 1818 3.4 17:03:04 10° NNW 17:08:33 66° ENE 17:08:59 63° E
Centaur D-1A AC-32 4.4 17:08:24 10° SW 17:10:41 14° SSW 17:11:58 12° SSE
H-2A R/B 4.4 17:16:24 14° S 17:16:24 14° S 17:17:01 10° S
Cosmos 836 Rocket 4.4 17:08:41 10° SSW 17:13:58 83° ESE 17:14:39 68° NE
Meteor 1-27 Rocket 3.5 17:12:37 10° S 17:18:08 84° E 17:19:12 60° NNE
Tiangong 4.2 17:18:02 10° SSW 17:18:05 10° SSW 17:18:05 10° SSW
IRAS Rocket 4.0 17:22:41 76° ESE 17:22:41 76° ESE 17:28:09 10° S
Aureole 3 Rocket 4.4 17:19:10 10° S 17:20:58 29° S 17:20:58 29° S
SL-08 RB Rocket 4.3 17:20:53 10° S 17:25:27 57° W 17:30:00 10° NNW
CZ-2C R/B 4.3 17:23:46 10° N 17:28:11 29° WNW 17:32:36 10° SW
Cosmos 1867 3.5 17:22:53 10° SSW 17:27:58 79° SSW 17:27:58 79° SSW
H-2A R/B 4.3 17:25:09 10° SSW 17:29:13 23° W 17:33:14 10° NW
Cosmos 2150 Rocket 4.3 17:28:52 10° NNW 17:33:12 61° NW 17:33:12 61° NW
CZ-4C R/B 3.5 17:28:06 10° NW 17:35:39 62° WSW 17:44:09 10° SSE
Lacrosse 5 rocket 4.2 17:44:35 10° NW 17:44:49 11° NW 17:44:49 11° NW
USA 234 4.4 17:45:41 12° SSE 17:51:21 39° SW 17:57:23 10° WNW
Cosmos 2322 Rocket 4.3 18:12:19 10° NNW 18:13:53 19° NW 18:13:53 19° NW
SL-16 R/B 4.4 18:31:14 10° NW 18:33:21 20° WNW 18:33:21 20° WNW
